Home > Weather > Zagreb > Past weeks

Flag for Croatia Past Weather in Zagreb, Croatia — Yesterday and Last 2 Weeks

Now
86 °F

Sunny.


Feels Like: 85 °F
Forecast: 56 / 79 °F
Wind: 3 mph from North

Location: Zagreb / Pleso

Current Time: May 28, 2016 at 6:09:44 PM

Latest Report: May 28, 2016 at 5:30 PM


Visibility: 10 mi

Pressure: 29.83 "Hg

Humidity: 38%

Dew Point: 57 °F

Location of ZagrebLocation

Past Weather in Zagreb — Graph

°F

Zagreb Temperature Yesterday

Maximum temperature yesterday: 84 °F (at 3:30 PM)
Minimum temperature yesterday: 54 °F (at 5:30 AM)
Average temperature yesterday: 71 °F

High & Low Weather Summary for the Past Weeks

 TemperatureHumidityPressure
High86 °F (May 28, 4:00 PM)100% (May 16, 6:00 AM)30.12 "Hg (May 16, 6:00 AM)
Low39 °F (May 17, 4:00 AM)32% (May 22, 2:00 PM)29.47 "Hg (May 13, 4:00 PM)
Average61 °F69%29.92 "Hg
* Reported May 13 4:00 PM — May 28 4:30 PM, Zagreb, Weather by CustomWeather, © 2016

Note: Actual official high and low records may vary slightly from our data, if they occured in-between our weather recording intervals... More about our weather records

Advertising

Zagreb Weather History for the Previous 24 Hours

Scroll right to see more
 ConditionsComfort  
Time TempWeatherWind HumidityBarometerVisibility
4:30 PM
Sat, May 28
86 °FSunny.6 mph38%29.86 "Hg10 mi
4:00 PM86 °FSunny.2 mph43%29.86 "Hg10 mi
3:30 PM84 °FSunny.3 mph37%29.89 "Hg10 mi
3:00 PM84 °FSunny.6 mph40%29.89 "Hg10 mi
2:30 PM84 °FSunny.3 mph35%29.89 "Hg10 mi
2:00 PM84 °FSunny.3 mph40%29.89 "Hg10 mi
1:30 PM82 °FSunny.5 mph35%29.92 "Hg10 mi
1:00 PM82 °FSunny.5 mph37%29.92 "Hg10 mi
12:30 PM81 °FSunny.2 mph37%29.92 "Hg10 mi
12:00 PM81 °FSunny.3 mph37%29.92 "Hg10 mi
11:30 AM79 °FPassing clouds.3 mph37%29.95 "HgN/A
11:00 AM77 °FSunny.3 mph47%29.95 "Hg10 mi
10:30 AM75 °FSunny.3 mph50%29.95 "Hg10 mi
10:00 AM75 °FSunny.3 mph54%29.95 "Hg10 mi
9:30 AM73 °FSunny.2 mph57%29.95 "Hg10 mi
9:00 AM72 °FPassing clouds.3 mph61%29.95 "HgN/A
8:30 AM70 °FPassing clouds.3 mph64%29.95 "HgN/A
8:00 AM66 °FSunny.1 mph73%29.95 "Hg10 mi
7:30 AM64 °FSunny.1 mph73%29.95 "Hg10 mi
7:00 AM63 °FSunny.No wind77%29.95 "Hg10 mi
6:30 AM59 °FSunny.3 mph88%29.95 "Hg10 mi
6:00 AM57 °FClear.5 mph88%29.95 "Hg10 mi
5:30 AM57 °FClear.3 mph88%29.95 "Hg10 mi
5:00 AM57 °FClear.3 mph88%29.95 "Hg10 mi
4:30 AM57 °FClear.3 mph88%29.95 "Hg10 mi
4:00 AM57 °FClear.3 mph88%29.95 "Hg10 mi
3:30 AM59 °FClear.2 mph88%29.95 "Hg10 mi
3:00 AM61 °FClear.5 mph83%29.95 "Hg10 mi
2:30 AM61 °FClear.1 mph83%29.95 "Hg10 mi
2:00 AM61 °FClear.7 mph88%29.95 "Hg10 mi
1:30 AM63 °FClear.1 mph83%29.95 "Hg10 mi
1:00 AM63 °FClear.2 mph83%29.95 "Hg10 mi
12:30 AM64 °FClear.1 mph78%29.98 "Hg10 mi
12:00 AM66 °FClear.2 mph73%29.98 "Hg10 mi
11:30 PM
Fri, May 27
66 °FClear.2 mph78%29.95 "Hg10 mi
11:00 PM68 °FClear.2 mph69%29.95 "Hg10 mi
10:30 PM68 °FClear.6 mph73%29.95 "Hg10 mi
10:00 PM72 °FClear.3 mph65%29.95 "Hg10 mi
9:30 PM73 °FSunny.1 mph61%29.95 "Hg10 mi
9:00 PM73 °FSunny.5 mph61%29.95 "Hg10 mi
8:30 PM75 °FPassing clouds.6 mph57%29.95 "HgN/A
8:00 PM77 °FSunny.5 mph57%29.95 "Hg10 mi
7:30 PM81 °FPassing clouds.6 mph42%29.95 "HgN/A
7:00 PM81 °FPassing clouds.6 mph39%29.95 "HgN/A
6:30 PM82 °FPassing clouds.3 mph35%29.95 "HgN/A
6:00 PM84 °FPassing clouds.5 mph37%29.95 "HgN/A
Weather by CustomWeather, © 2016

See weather overviewHow to use our weather pages